Weather in Pushkino

Russia / Republic of Mordovia     54°30′48″N   45°22′08″E
temp.,
°C
wind,
m/s
gust,
m/s
humid.,
%
clouds,
%
prec.,
mm/h
press.,
hPa
HPBL,
m
17 august, wed
wed1700:00+17e376450 0.0 1023104
03:00+16e387070 0.0 1023128
06:00+17e3106992 0.0 1023209
09:00+23ese684680 0.0 1022537
12:00+27ese663896 0.0 10221565
15:00+28e5536100 0.0 10211944
18:00+25e5848100 0.0 1020372
21:00+20e385499 0.0 1020139
18 august, thu
thu1800:00+19ene41161100 0.0 1020233
03:00+18ene41166100 0.0 1020264
06:00+19e61367100 0.0 1020344
09:00+23e71153100 0.0 1020603
12:00+26e8941100 0.0 10201425
15:00+26e8940100 0.0 10201592
18:00+24e61240100 0.0 1020663
21:00+20ene61554100 0.0 1021458
19 august, fri
fri1900:00+19e71559100 0.0 1022541
03:00+18e71555100 0.0 1024490
06:00+16e71454100 0.0 1025450
09:00+20e81239100 0.0 1026686
12:00+23e8102822 0.0 10261360
15:00+26ese89295 0.0 10262134
18:00+24e711361 0.0 1027702
21:00+18e515418 0.0 1028346
20 august, sat
sat2000:00+15ese410440 0.0 1029169
03:00+13ese494698 0.0 1031144
06:00+14ese41045100 0.0 1031206
09:00+20ese583399 0.0 1031567
12:00+24ese562592 0.0 10301426
15:00+26ese562345 0.0 10291639
18:00+22e473699 0.0 1028157
21:00+16e494796 0.0 1029130
21 august, sun
sun2100:00+14ese334863 0.0 102947
03:00+13e2253100 0.0 102915
06:00+14e235895 0.0 102961
09:00+22ese354171 0.0 1029508
12:00+26ese45325 0.0 10271632
15:00+28e56325 0.0 10262081
18:00+25e47428 0.0 1025224
21:00+19e495814 0.0 1026124